Showing default

ORBCOMM FM 20, 25416

Orbit data source: Space-Track

ORBCOMM FM 20, 25416 is a payload satellite owned by Orbcomm (US) in LEO that was launched on Sun, 02 Aug 1998 UTC via a PEGASUS XL/HAPS launch vehicle from the Pegasus Launch, Eastern Range Air Space (ERAS). Payload-class satellites include a variety of spacecraft equipped with specific instruments for various scientific and technological missions. These include communications satellites like Starlink; space stations such as the ISS; scientific satellites like the Hubble; Earth observation satellites from companies like Planet Labs, Umbra, and HawkEye 360; GPS; miniature CubeSats for education and research; and military/defense satellites.

Loading next visibility...
Identifier
25416, 1998-046D
Orbit
LEO
Country
Flag of USUS / ORB
Related business
Manufacturer
OSC-Germantown
Mission
Operational Commercial Communications
Bus & Motor
MICROSTAR, Unknown motor
Mass
42 kg wet, 42 kg dry
Launch date (UTC)
1998-08-02 (28 years ago)
Launch vehicle
PEGASUS XL/HAPS
Launch site
Pegasus Launch, Eastern Range Air Space (ERAS)
Object type
Payload
Rocket body
Debris
Shape & HBR
Cyl + 2 Pan, 4.2 m
Radar Cross Section
1.484 m², Medium (>0.1 m² and < 1m²)

Expand to show TLE details & history
Last TLE update: 4 hours ago

TLE from 4 hours ago
0 ORBCOMM FM 20
1 25416U 98046D   26038.30193140  .00001507  00000-0  54217-3 0  9990
2 25416  44.9935 147.3357 0000874 209.5854 150.4945 14.37824910438097
Epoch: 2026-02-07T07:14Z
TLE epoch observation values (Epoch: 2026-02-07T07:14:46.872Z)
Latitude
-0.00002°
Longitude
-98.78702°
Altitude
766.235 km
Speed
7.472 km/s
True Right ascension
09h 49m 20s
True Declination
0° 00' 00"
Sunlit
Object was in full shadow at epoch
Visualization orbit readout
Latitude
Unknown
Longitude
Unknown
Altitude
Unknown
Speed
Unknown
Apparent Right ascension
Unknown
Apparent Declination
Unknown
Sunlit
N/A
Visualization observer readout
Local Sidereal Time
12:55:23
Azimuth
Unknown
Elevation
Unknown
Doppler factor
Unknown
Orbital elements
Apogee altitude
767.865 km
Perigee altitude
766.616 km
Semi-major axis
7,145.378 km
Eccentricity
0.00009
Inclination
44.9935°
RAAN
147.3357°
Arg. of periapsis
209.5854°
True anomaly
150.49943°
Mean anomaly
150.4945°
Eccentric anomaly
150.49697°
Mean motion
3.5934 °/min
Orbital period
100.18 mins
BSTAR
0.00054217
Loading maneuver chart data...
Computing Atmospheric mass density...

Documentation

Showing up to 5 results
|